Wind_Speed
91 90 88 87 86 85 86 87 88 91 94 96 96 95 92 89 87 85 83 81 79 77 75 73 72 71 70 69 66 63 60 58 56 53 50 48 46 44 43 41 40 39 38
85 82 79 78 76 76 76 77 78 80 83 87 91 94 95 93 92 90 88 86 84 82 79 77 75 73 72 71 69 67 63 61 59 57 54 52 49 47 45 44 42 41 40
78 76 74 72 70 69 69 70 70 72 74 77 81 85 90 91 92 93 92 91 88 86 84 81 78 76 75 74 72 70 67 64 62 59 58 56 53 50 48 46 45 43 42
74 72 70 68 66 65 64 64 64 66 68 70 73 76 81 85 89 91 93 94 93 91 88 86 83 80 77 76 75 73 70 67 65 62 60 59 57 54 52 50 47 45 44
70 67 65 62 60 58 58 58 58 59 61 64 67 70 74 78 84 88 92 95 96 95 92 90 87 84 81 79 78 75 72 70 67 65 63 60 60 58 55 53 50 48 46
65 61 58 55 53 52 51 50 51 53 55 58 61 64 68 72 78 84 89 95 98 98 96 94 91 88 85 82 80 78 75 72 70 67 66 63 61 59 58 56 54 51 48
61 58 54 51 49 47 46 46 45 46 49 52 55 58 62 67 73 78 86 93 97 99 99 98 95 92 89 85 83 81 79 75 72 70 67 65 64 61 58 59 57 53 51
59 55 52 49 47 45 44 43 43 42 43 46 49 53 57 62 68 74 81 88 94 99 101 100 99 96 92 89 86 84 81 79 75 72 70 67 63 62 60 59 58 57 54
57 55 53 50 48 46 44 43 42 41 40 42 44 47 52 57 62 69 75 81 88 95 100 102 101 99 96 93 90 87 85 82 79 75 72 69 66 62 60 59 58 58 57
58 56 54 53 51 49 48 47 45 43 41 40 41 43 47 52 58 64 70 76 82 88 96 101 102 102 99 96 93 90 88 85 82 79 76 72 69 66 61 60 59 59 59
58 57 56 55 54 53 53 52 50 48 45 42 40 42 43 47 53 59 65 71 76 81 89 96 101 102 101 98 96 93 90 87 84 82 79 75 70 67 65 62 61 59 60
58 58 58 57 57 57 56 54 52 50 48 45 42 41 42 44 49 54 60 67 72 76 81 89 97 100 101 100 97 94 92 90 86 83 81 80 75 70 66 63 62 60 60
60 60 60 60 59 58 56 55 54 52 50 48 45 43 41 42 45 51 56 62 68 72 76 82 90 97 101 102 99 96 94 91 89 85 82 81 79 76 70 66 62 61 60
64 64 63 61 58 55 53 51 51 51 50 49 47 44 42 41 42 47 53 59 65 70 73 76 83 91 98 100 100 98 96 93 90 87 84 82 81 78 74 69 64 59 60
67 66 64 60 55 50 45 42 42 44 45 46 46 45 43 41 41 43 49 55 62 66 70 72 77 85 92 97 100 99 97 94 91 88 85 82 81 79 77 73 70 63 58
68 66 63 58 51 45 40 34 31 32 36 40 42 43 42 41 40 41 45 52 58 64 67 70 73 79 87 94 99 99 96 95 92 89 86 84 81 78 78 76 73 67 64
69 66 62 55 48 41 37 31 23 20 25 32 36 39 40 39 39 40 42 48 55 61 64 67 70 74 82 90 96 99 98 95 92 90 88 85 82 80 78 76 74 70 66
68 66 61 53 46 41 37 31 22 14 14 22 29 34 36 37 37 38 39 44 51 57 62 64 67 70 76 85 92 96 97 94 93 91 88 85 82 79 78 77 74 72 70
68 65 60 51 45 40 36 32 24 13 6 13 21 27 31 33 33 35 37 41 47 54 59 62 65 67 71 78 85 91 96 95 94 91 88 85 82 78 76 76 74 72 71
68 65 60 51 44 39 35 31 24 14 4 7 15 20 25 29 30 32 34 38 43 50 56 60 62 65 67 72 79 86 92 94 93 92 88 85 82 79 76 75 73 73 72
69 66 60 53 44 38 33 29 23 14 6 4 11 15 20 24 27 29 31 34 39 46 52 57 60 62 64 66 73 81 87 91 92 92 89 86 82 78 75 73 73 72 72
68 66 62 55 46 39 31 27 22 15 7 4 8 12 16 20 24 26 28 31 36 42 48 54 58 60 61 63 67 74 82 87 90 91 88 85 83 81 77 74 73 71 69
67 66 64 58 50 41 33 27 22 17 10 3 5 9 13 17 20 23 25 28 33 38 45 51 55 58 60 60 61 67 75 81 87 89 88 84 82 81 78 76 73 71 69
66 65 64 61 54 46 38 30 23 18 12 6 2 6 10 13 17 20 22 25 30 35 41 46 51 54 57 58 57 62 68 73 80 85 87 84 82 80 78 78 75 71 69
64 64 64 62 57 50 43 36 27 20 14 9 3 2 7 11 14 18 20 23 28 32 37 43 47 50 53 55 56 57 62 68 74 81 83 83 81 80 78 77 76 73 70
63 64 63 62 60 54 47 40 32 24 17 11 6 1 4 8 12 16 18 21 26 30 35 40 44 47 49 52 53 54 57 64 69 75 80 81 80 79 78 78 76 75 73
Wind_Direction
295 293 290 287 284 280 276 272 269 265 262 258 255 252 249 246 243 241 239 237 235 234 233 232 232 231 230 229 228 228 228 228 228 228 228 227 226 225 225 224 224 223 223
299 296 293 289 285 281 277 273 268 264 261 258 254 251 248 245 242 239 237 235 233 232 231 230 230 229 229 228 228 227 226 227 227 227 228 228 226 225 225 225 225 224 224
302 299 296 292 288 284 279 274 269 264 260 256 252 249 246 243 240 237 235 233 232 230 229 228 228 227 227 227 227 226 225 225 226 226 227 227 227 226 225 225 225 225 225
306 303 299 295 291 287 282 277 272 266 261 256 251 247 244 240 237 234 232 231 229 228 227 226 225 225 225 226 226 225 224 224 224 225 226 227 226 226 225 224 224 225 226
309 306 302 298 294 290 285 280 274 268 262 257 251 247 243 239 235 231 229 228 227 226 225 224 223 223 223 224 224 224 224 223 223 224 225 227 228 226 225 224 223 224 225
312 309 306 302 298 294 288 283 278 272 266 259 252 246 242 238 234 230 227 224 223 223 223 222 222 222 221 222 223 223 223 222 222 222 224 226 228 228 226 224 222 222 224
315 312 309 305 301 296 292 287 282 276 270 263 254 246 241 238 234 230 226 223 221 220 220 220 220 220 220 220 221 222 222 222 221 221 222 224 227 228 228 226 222 221 223
316 313 309 305 301 297 293 290 285 280 275 268 259 249 240 238 234 230 227 224 221 219 218 218 218 218 218 218 219 220 221 221 221 220 220 221 225 227 228 228 224 222 222
317 314 310 306 301 296 292 289 286 282 277 272 265 255 243 236 234 231 227 225 222 220 217 216 216 216 217 217 217 218 219 220 220 220 219 220 222 225 227 226 225 223 222
319 315 312 307 301 296 291 287 283 281 276 271 266 261 250 239 233 230 228 225 223 221 218 216 215 215 215 215 216 216 218 219 219 219 219 220 221 222 223 226 225 226 223
320 316 312 307 301 296 290 285 280 277 273 268 263 260 255 244 234 229 227 225 223 221 220 217 214 213 213 214 214 215 216 218 219 219 219 219 219 221 223 225 225 225 225
323 318 313 308 302 296 290 283 278 273 269 265 261 256 253 247 237 229 225 224 222 221 220 218 215 213 212 212 212 213 215 216 218 218 219 220 220 220 220 221 223 224 224
327 323 317 312 306 299 291 283 276 269 265 260 256 253 250 246 240 231 223 221 221 220 220 219 216 213 211 210 211 212 213 215 217 218 219 220 221 221 222 221 222 222 222
332 328 324 319 313 306 296 286 275 267 260 255 251 248 246 243 239 232 224 219 219 219 219 218 217 214 211 209 209 210 212 213 215 217 218 219 220 221 222 222 221 222 223
337 335 332 328 323 318 309 296 280 266 256 250 246 243 241 239 236 231 225 219 217 217 218 217 217 214 212 209 208 209 211 213 214 217 218 219 220 221 222 222 223 221 222
343 341 339 337 335 332 325 313 293 270 252 244 239 237 236 235 233 230 225 219 216 215 216 217 216 215 212 210 208 207 208 211 213 215 217 218 220 220 221 223 223 224 223
347 347 346 346 346 346 343 335 318 284 252 238 233 231 231 231 230 228 225 220 215 213 214 216 215 215 213 211 208 206 207 210 212 214 216 217 219 220 221 222 223 223 223
352 352 353 353 353 354 354 352 345 318 258 232 226 225 225 226 227 225 223 219 215 212 212 213 215 214 213 212 210 207 205 207 210 213 214 216 217 219 221 221 221 222 222
357 357 357 357 358 360 0 0 359 349 282 225 218 219 220 222 223 223 222 218 215 211 210 211 214 214 213 213 211 208 205 205 208 211 213 215 216 217 218 220 220 221 221
1 2 2 1 1 3 4 4 6 7 357 207 206 211 215 217 219 220 220 217 214 211 208 209 212 213 213 212 212 210 207 206 207 209 212 214 215 216 217 218 219 220 221
4 6 6 6 4 5 8 8 12 18 38 165 192 201 208 213 215 217 217 215 212 210 207 207 209 212 213 212 212 211 210 207 207 208 211 213 214 215 216 217 218 219 220
7 9 10 10 9 9 11 11 17 23 41 134 180 192 201 208 211 215 215 213 211 208 206 206 207 210 212 212 212 212 212 210 208 207 210 212 215 216 217 217 217 217 218
9 11 12 13 14 14 15 14 16 22 32 76 168 191 202 206 210 212 212 211 209 207 205 205 206 209 211 212 212 212 212 212 210 208 208 210 213 215 217 218 218 218 218
11 13 14 16 17 18 18 17 18 22 29 44 133 193 203 208 209 210 211 210 207 205 203 204 205 208 210 211 212 212 212 212 211 210 209 209 211 213 215 217 217 217 218
12 14 15 17 19 20 21 21 21 21 26 35 53 186 203 207 207 208 209 207 204 202 201 202 204 206 208 210 211 211 211 211 211 210 209 210 210 212 213 215 217 217 218
13 14 16 18 19 20 21 22 23 22 22 25 29 52 199 203 205 206 206 204 201 199 199 200 202 204 206 209 210 211 211 211 210 210 209 210 211 212 213 214 216 218 219
Height
5623 5613 5605 5598 5592 5587 5585 5585 5585 5588 5592 5599 5607 5616 5626 5637 5647 5658 5668 5678 5687 5696 5706 5715 5724 5733 5742 5751 5759 5767 5775 5783 5789 5796 5803 5809 5814 5820 5826 5831 5836 5841 5846
5594 5585 5577 5570 5564 5559 5556 5555 5555 5557 5560 5565 5573 5582 5593 5605 5618 5629 5642 5653 5664 5675 5685 5696 5706 5716 5726 5735 5745 5753 5762 5770 5778 5785 5792 5798 5805 5811 5817 5823 5829 5834 5839
5570 5560 5552 5545 5539 5534 5530 5528 5527 5528 5531 5535 5542 5550 5560 5573 5586 5599 5613 5627 5639 5651 5663 5675 5687 5698 5709 5719 5729 5739 5748 5757 5766 5773 5781 5788 5795 5802 5808 5815 5821 5827 5832
5548 5538 5529 5522 5516 5510 5506 5504 5503 5503 5505 5509 5515 5522 5530 5541 5553 5567 5583 5598 5613 5626 5640 5653 5666 5679 5691 5703 5713 5724 5734 5743 5752 5761 5769 5776 5784 5791 5798 5805 5812 5819 5824
5528 5518 5509 5501 5495 5489 5485 5482 5481 5480 5482 5484 5490 5497 5504 5513 5523 5537 5553 5568 5584 5600 5616 5631 5645 5659 5673 5685 5697 5708 5719 5729 5739 5748 5757 5765 5772 5780 5788 5795 5803 5810 5816
5511 5501 5492 5484 5477 5472 5467 5463 5461 5460 5460 5462 5467 5474 5480 5487 5497 5510 5524 5539 5555 5574 5591 5608 5624 5639 5653 5667 5680 5692 5703 5714 5725 5735 5745 5753 5761 5769 5776 5784 5793 5800 5807
5495 5486 5477 5469 5462 5457 5452 5448 5445 5443 5442 5442 5446 5453 5459 5464 5474 5485 5497 5511 5529 5547 5566 5584 5601 5617 5633 5648 5662 5675 5687 5699 5711 5721 5731 5741 5749 5757 5765 5773 5782 5790 5798
5481 5472 5464 5456 5449 5444 5438 5434 5430 5429 5427 5425 5427 5432 5440 5446 5453 5463 5473 5487 5504 5522 5540 5559 5578 5595 5612 5629 5644 5658 5671 5684 5696 5707 5718 5728 5737 5746 5755 5763 5771 5780 5787
5469 5459 5450 5443 5436 5430 5425 5420 5417 5415 5414 5411 5410 5414 5420 5428 5434 5443 5454 5466 5481 5497 5516 5535 5554 5573 5590 5608 5624 5639 5653 5667 5681 5693 5705 5715 5725 5735 5743 5752 5760 5769 5777
5456 5446 5437 5428 5421 5414 5409 5405 5402 5400 5399 5399 5397 5398 5402 5408 5416 5426 5436 5448 5461 5476 5492 5511 5530 5550 5568 5587 5604 5620 5636 5650 5665 5678 5691 5702 5714 5723 5732 5741 5750 5758 5766
5445 5433 5422 5412 5404 5396 5391 5387 5384 5383 5383 5384 5384 5385 5387 5392 5399 5408 5419 5430 5443 5457 5471 5488 5506 5527 5547 5566 5584 5602 5618 5633 5648 5663 5676 5689 5700 5710 5721 5729 5738 5746 5755
5433 5420 5407 5395 5384 5376 5369 5365 5363 5363 5364 5366 5368 5371 5373 5377 5383 5392 5403 5413 5426 5439 5452 5468 5486 5505 5525 5545 5565 5584 5601 5616 5632 5647 5661 5675 5687 5698 5708 5717 5727 5736 5744
5421 5406 5390 5377 5364 5353 5346 5341 5340 5341 5343 5347 5351 5355 5359 5363 5368 5377 5388 5398 5410 5422 5436 5450 5466 5484 5504 5526 5547 5566 5584 5600 5615 5631 5646 5660 5673 5685 5696 5706 5714 5724 5734
5406 5389 5372 5356 5341 5329 5321 5316 5314 5316 5321 5327 5333 5339 5345 5350 5355 5363 5373 5384 5395 5407 5421 5435 5449 5467 5487 5508 5529 5549 5567 5584 5600 5616 5631 5646 5659 5672 5684 5694 5703 5712 5722
5393 5374 5356 5338 5323 5310 5300 5293 5291 5294 5300 5307 5315 5323 5330 5337 5343 5350 5359 5370 5382 5394 5407 5420 5434 5452 5470 5490 5511 5531 5550 5568 5585 5601 5616 5631 5645 5659 5671 5682 5692 5701 5711
5382 5363 5344 5325 5310 5296 5285 5278 5274 5275 5281 5289 5298 5308 5316 5324 5332 5339 5347 5357 5369 5381 5394 5407 5422 5437 5454 5473 5493 5514 5534 5553 5570 5586 5601 5617 5632 5645 5658 5670 5681 5691 5702
5375 5355 5335 5317 5302 5290 5279 5271 5265 5265 5269 5276 5285 5295 5304 5313 5321 5329 5337 5346 5357 5370 5383 5396 5410 5424 5441 5458 5477 5498 5518 5538 5555 5571 5587 5603 5618 5632 5645 5658 5669 5681 5691
5370 5350 5331 5314 5300 5289 5278 5269 5263 5261 5263 5268 5277 5286 5295 5304 5312 5320 5328 5336 5347 5359 5373 5386 5399 5413 5429 5445 5463 5483 5503 5522 5540 5557 5573 5589 5604 5618 5632 5644 5657 5669 5680
5367 5348 5330 5314 5301 5290 5280 5271 5265 5262 5261 5265 5272 5280 5289 5297 5305 5313 5320 5328 5338 5350 5363 5376 5389 5403 5418 5433 5450 5468 5488 5507 5525 5543 5560 5576 5591 5605 5618 5632 5644 5657 5669
5367 5348 5331 5315 5302 5292 5283 5275 5269 5265 5264 5266 5271 5277 5285 5293 5300 5307 5314 5322 5331 5342 5355 5368 5380 5394 5408 5423 5439 5455 5474 5492 5511 5529 5547 5562 5577 5591 5605 5619 5634 5646 5657
5368 5350 5333 5318 5305 5295 5287 5279 5273 5269 5267 5269 5272 5277 5283 5289 5296 5302 5309 5316 5325 5335 5347 5360 5373 5385 5399 5414 5429 5444 5461 5479 5498 5516 5533 5549 5565 5580 5592 5606 5619 5632 5645
5371 5354 5337 5322 5310 5299 5290 5284 5278 5274 5272 5272 5275 5279 5283 5288 5293 5300 5306 5313 5321 5330 5341 5353 5365 5378 5391 5405 5420 5434 5449 5467 5487 5505 5520 5535 5551 5565 5579 5593 5607 5620 5633
5376 5359 5343 5328 5315 5304 5295 5288 5283 5279 5277 5277 5279 5281 5284 5288 5293 5298 5304 5310 5317 5325 5335 5347 5359 5371 5384 5399 5413 5428 5441 5455 5473 5490 5506 5523 5538 5552 5566 5581 5594 5608 5622
5381 5366 5350 5335 5322 5310 5301 5294 5288 5284 5282 5282 5282 5283 5285 5289 5293 5297 5302 5308 5314 5322 5331 5343 5355 5367 5378 5391 5404 5417 5431 5445 5461 5477 5494 5511 5525 5539 5554 5568 5583 5597 5610
5387 5372 5357 5343 5330 5318 5308 5300 5294 5290 5287 5285 5285 5285 5287 5289 5292 5297 5301 5307 5313 5320 5328 5338 5349 5361 5372 5385 5397 5410 5423 5437 5451 5466 5482 5498 5513 5527 5541 5556 5571 5585 5598
5392 5377 5364 5350 5338 5326 5316 5307 5300 5295 5292 5289 5288 5288 5289 5290 5293 5296 5300 5305 5311 5318 5326 5335 5345 5356 5367 5379 5391 5403 5414 5428 5441 5455 5470 5486 5501 5515 5529 5544 5559 5573 5587